Find SURCAL 5

NORAD ID: 1577 Int'l Des: 1965-065 Owner: NRL Country: US operational
LEOCIRCULARRETROGRADE

Current View

Loading 3D Globe...

About SURCAL 5

SURCAL 5 (NORAD 1577) is a satellite by NRL of US. It operates in LEO, CIRCULAR, RETROGRADE orbit

Upcoming Passes

Passes for default location (London). Set your location on the main map for personalized predictions.

Altitude History

Loading altitude history...

Two-Line Element Set

1 01577U 65065J 26194.62190208 .00000072 00000-0 12088-3 0 9993
2 01577 90.0288 212.1798 0070988 30.7393 90.6543 13.36259026966180
Epoch: Jul 13, 2026 • Age: 16 hours

Current Status

Altitude 1122.7 km
Apogee / Perigee N/A
Velocity 7.30 km/s
Sub-Earth Point 75.57°N, 5.04°W
Type other

Most Searched